TimeCDT,TemperatureF,Dew PointF,Humidity,Sea Level PressureIn,VisibilityMPH,Wind Direction,Wind SpeedMPH,Gust SpeedMPH,PrecipitationIn,Events,Conditions,WindDirDegrees,DateUTC
12:53 AM,30.0,24.1,79,30.04,10.0,Calm,Calm,-,N/A,,Clear,0,2012-11-02 05:53:00
1:53 AM,27.0,23.0,85,30.05,10.0,Calm,Calm,-,N/A,,Clear,0,2012-11-02 06:53:00
2:53 AM,25.0,23.0,92,30.06,10.0,Calm,Calm,-,N/A,,Clear,0,2012-11-02 07:53:00
3:53 AM,25.0,23.0,92,30.07,10.0,Calm,Calm,-,N/A,,Clear,0,2012-11-02 08:53:00
4:53 AM,24.1,21.9,91,30.08,9.0,Calm,Calm,-,N/A,,Clear,0,2012-11-02 09:53:00
5:53 AM,21.9,21.0,96,30.09,10.0,Calm,Calm,-,N/A,,Clear,0,2012-11-02 10:53:00
6:53 AM,21.9,19.9,92,30.12,10.0,Calm,Calm,-,N/A,,Clear,0,2012-11-02 11:53:00
7:53 AM,21.0,19.9,96,30.13,10.0,Calm,Calm,-,N/A,,Clear,0,2012-11-02 12:53:00
8:53 AM,26.1,25.0,96,30.14,10.0,Calm,Calm,-,N/A,,Clear,0,2012-11-02 13:53:00
9:53 AM,34.0,30.0,85,30.16,10.0,Calm,Calm,-,N/A,,Clear,0,2012-11-02 14:53:00
10:53 AM,39.0,28.0,65,30.16,10.0,East,4.6,-,N/A,,Clear,90,2012-11-02 15:53:00
11:53 AM,41.0,27.0,57,30.16,10.0,ENE,4.6,-,N/A,,Clear,60,2012-11-02 16:53:00
12:53 PM,44.1,26.1,49,30.15,10.0,Variable,5.8,-,N/A,,Clear,0,2012-11-02 17:53:00
1:53 PM,45.0,26.1,48,30.13,10.0,Calm,Calm,-,N/A,,Clear,0,2012-11-02 18:53:00
2:53 PM,46.9,25.0,42,30.12,10.0,Calm,Calm,-,N/A,,Clear,0,2012-11-02 19:53:00
3:53 PM,46.9,25.0,42,30.12,10.0,Calm,Calm,-,N/A,,Clear,0,2012-11-02 20:53:00
4:53 PM,46.0,24.1,42,30.12,10.0,ENE,3.5,-,N/A,,Clear,70,2012-11-02 21:53:00
5:53 PM,44.1,24.1,45,30.11,10.0,East,3.5,-,N/A,,Clear,80,2012-11-02 22:53:00
6:53 PM,42.1,26.1,53,30.13,10.0,Calm,Calm,-,N/A,,Clear,0,2012-11-02 23:53:00
7:53 PM,39.0,27.0,62,30.15,10.0,Calm,Calm,-,N/A,,Clear,0,2012-11-03 00:53:00
8:53 PM,39.0,27.0,62,30.15,10.0,ENE,3.5,-,N/A,,Clear,60,2012-11-03 01:53:00
9:53 PM,35.1,26.1,70,30.17,10.0,Calm,Calm,-,N/A,,Clear,0,2012-11-03 02:53:00
10:53 PM,33.1,27.0,78,30.19,10.0,Calm,Calm,-,N/A,,Overcast,0,2012-11-03 03:53:00
11:53 PM,34.0,27.0,75,30.18,10.0,Calm,Calm,-,N/A,,Overcast,0,2012-11-03 04:53:00